Overview Statistics Trail Chart Weather Telemetry Raw packets
 

This is the latest recevied weather packets stored in our database for station/object IU3OVK-13. If no packets are shown the sender has not sent any weather packets the latest 10 day(s).

<< 20 21 22 23 24 25 26 >>
Time Temp. Humidity Pressure Rain* Wind** Luminosity Snow
1788219306 20° C 99% 1010.4 hPa - - - -
1788218686 20° C 99% 1010.5 hPa - - - -
1788217445 22.22° C 99% 1010 hPa - - - -
1788216825 21.67° C 99% 1010.3 hPa - - - -
1788216205 22.22° C 99% 1009.8 hPa - - - -
1788215585 22.78° C 99% 1008.4 hPa - - - -
1788214966 22.22° C 99% 1007.7 hPa - - - -
1788214344 22.22° C 99% 1007.8 hPa - - - -
1788210435 23.33° C 99% 1007.8 hPa - - - -
1788209815 24.44° C 99% 1007.6 hPa - - - -
1788209226 24.44° C 99% 1007.7 hPa - - - -
1788209195 24.44° C 99% 1007.7 hPa - - - -
1788207954 25° C 99% 1007.4 hPa - - - -
1788207334 25° C 99% 1007.8 hPa - - - -
1788206093 25.56° C 99% 1007.8 hPa - - - -
1788205473 25.56° C 99% 1007.5 hPa - - - -
1788204868 26.11° C 99% 1007.4 hPa - - - -
1788204233 26.11° C 99% 1007.2 hPa - - - -
1788202992 26.67° C 99% 1007 hPa - - - -
1788201752 26.67° C 99% 1006.8 hPa - - - -
1788200511 26.67° C 99% 1006.2 hPa - - - -
1788199891 26.67° C 99% 1006 hPa - - - -
1788198651 27.22° C 99% 1006.4 hPa - - - -
1788198031 27.78° C 99% 1006.2 hPa - - - -
1788197410 28.33° C 99% 1005.9 hPa - - - -

* Rain since midnight (hover to see other rain measurements)
** Current wind speed in m/s (hover to see current wind gust speed)